OpenBCM V2.0.2 (Linux)

Packet Radio Mailbox

IZ3LSV

[San Dona' di P. JN]

 Login: GUEST





  
LU9DCE > KEPS     06.03.18 18:13l 260 Lines 12933 Bytes #999 (0) @ WW
BID : 33639_LU9DCE
Read: GUEST
Subj: SAT TLE OF 6
Path: IZ3LSV<IR2UBX<EA2RCF<LU9DCE
Sent: 180306/1601Z @:LU9DCE.TOR.BA.ARG.SOAM #:33639 [TORTUGUITAS] FBB7.07
From: LU9DCE@LU9DCE.TOR.BA.ARG.SOAM
To  : KEPS@WW


            __    _  _  ___  ____   ___  ____    ____  ____  ____
           (  )  / )( \/ _ \(    \ / __)(  __)  (  _ \(  _ \/ ___)
           / (_/\) \/ (\__  )) D (( (__  ) _)    ) _ ( ) _ (\___ \
           \____/\____/(___/(____/ \___)(____)  (____/(____/(____/
               ESTACION DE PACKET RADIO - BUENOS AIRES (GF05OM)
                   BOLETINES INFORMATIVOS PROGRAMADOS (BIP)
                    LU9DCE@GMX.COM - RF 147070 @ 1200 BAUD
                           telnet lu9dce.dynu.com
             BBS port 6300 / NODE port 3694 / DXCLUSTER port 9000

+------------------------------------------------------------------------------+
OSCAR 7
1 07530U 74089B   18064.91048490 -.00000041  00000-0  24117-4 0  9992
2 07530 101.6741  33.8343 0012049 173.6554 250.1733 12.53631320981654
OSCAR 11 (UoSAT 2)
1 14781U 84021B   18064.70007361 +.00000058 +00000-0 +13351-4 0  9999
2 14781 097.6632 105.2543 0009851 067.1338 293.0915 14.82984493829108
OSCAR 19 (LUSAT)
1 20442U 90005G   18064.86592857 +.00000022 +00000-0 +24229-4 0  9992
2 20442 098.6018 004.0434 0012920 094.6594 265.6065 14.32888346469031
KITSAT B
1 22825U 93061C   18064.87745076 +.00000001 +00000-0 +18253-4 0  9995
2 22825 098.8511 039.1858 0007405 291.1227 068.9163 14.30023306274533
POSAT 1
1 22826U 93061D   18064.98812185  .00000002  00000-0  18341-4 0  9993
2 22826  98.8453  39.3490 0007870 279.0901  80.9390 14.30354258275005
RADIO ROSTO
1 23439U 94085A   18064.76465921 -.00000046 +00000-0 -92498-4 0  9994
2 23439 064.8163 156.0992 0160781 200.5708 330.8239 11.27566546955064
JAS 2
1 24278U 96046B   18065.15097304 -.00000064  00000-0 -29605-4 0  9995
2 24278  98.5271 278.0452 0350687  18.4073 342.9395 13.53082072 64306
TECHSAT 1B
1 25397U 98043D   18064.85742711 -.00000005 +00000-0 +16977-4 0  9994
2 25397 098.6404 007.0603 0001083 016.2719 343.8495 14.23640780020804
ISS (ZARYA)
1 25544U 98067A   18064.89141530 +.00001827 +00000-0 +34765-4 0  9997
2 25544 051.6427 173.6662 0002954 153.1457 335.2256 15.54187938102453
PCSAT
1 26931U 01043C   18064.66892054 -.00000015 +00000-0 +26136-4 0  9997
2 26931 067.0512 136.5195 0006219 282.6836 077.3570 14.30495904857678
SAUDISAT 1C
1 27607U 02058C   18064.91564055 +.00000005 +00000-0 +21406-4 0  9993
2 27607 064.5555 045.6909 0053060 352.7769 007.2563 14.75425031817595
CUTE-1
1 27844U 03031E   18064.95432830 +.00000044 +00000-0 +39472-4 0  9992
2 27844 098.6893 075.1222 0008923 314.9891 045.0563 14.22097818761487
CUBESAT XI 4
1 27848U 03031J   18064.95537102 +.00000023 +00000-0 +30418-4 0  9992
2 27848 098.6983 075.4857 0008978 326.0034 034.0568 14.21703857761367
MOZHAYETS 4
1 27939U 03042A   18065.50396017  .00000067  00000-0  20527-4 0  9993
2 27939  97.9725 207.3924 0014277 112.6180 322.0211 14.66661914771761
CUBESAT XI 5
1 28895U 05043F   18064.90279749 +.00000118 +00000-0 +31389-4 0  9998
2 28895 097.8927 220.6317 0017568 039.9834 320.2659 14.63514905658532
CUTE-1.7+APD II
1 32785U 08021C   18064.83232115 +.00000190 +00000-0 +26240-4 0  9998
2 32785 097.5525 081.9200 0013731 027.5980 332.5964 14.88070951533732
DELFI C3
1 32789U 08021G   18065.18802601  .00000834  00000-0  61719-4 0  9999
2 32789  97.5250 122.5560 0011028 291.1297  68.8751 15.05789822536289
SEEDS
1 32791U 08021J   18065.02166445  .00000271  00000-0  33174-4 0  9993
2 32791  97.5438  87.2154 0013503   8.9067 351.2389 14.90480525534145
YUBELEINY
1 32953U 08025A   18065.50221810  .00000005  00000-0 -36234-4 0  9994
2 32953  82.4990  76.5390 0020341  75.0496 285.2834 12.43082107444010
PRISM (HITOMI)
1 33493U 09002B   18065.37575328  .00000102  00000-0  14720-4 0  9994
2 33493  98.1410 323.4711 0014380 300.1738  59.8073 14.96091616494974
KKS-1 (KISEKI)
1 33499U 09002H   18064.95289782 +.00000100 +00000-0 +22793-4 0  9996
2 33499 098.3506 243.3874 0007988 259.7845 100.2462 14.75299828489533
SWISSCUBE
1 35932U 09051B   18064.88358255 +.00000129 +00000-0 +40085-4 0  9993
2 35932 098.5284 213.6539 0008196 160.0267 200.1252 14.56126854448364
BEESAT
1 35933U 09051C   18065.12441505  .00000116  00000-0  37049-4 0  9995
2 35933  98.5324 215.3809 0006137 169.1892 190.9438 14.56234580448544
ITUPSAT 1
1 35935U 09051E   18064.98358188  .00000095  00000-0  32968-4 0  9995
2 35935  98.5437 215.4911 0008522 167.5597 192.5811 14.55415399448316
XIWANG-1 (HOPE-1)
1 36122U 09072B   18065.48175396 -.00000047  00000-0 -12289-4 0  9994
2 36122 100.0828  84.8941 0007379 355.1780   4.9262 13.16343578395139
TISAT 1
1 36799U 10035E   18064.95144380 +.00000274 +00000-0 +33938-4 0  9999
2 36799 098.0894 198.5407 0012452 181.3053 178.8134 14.90710400414572
JUGNU
1 37839U 11058B   18064.86418594 +.00000317 +00000-0 +27154-4 0  9993
2 37839 019.9617 303.7818 0018960 187.8425 258.4508 14.12611032330632
SRMSAT
1 37841U 11058D   18065.17105028  .00000307  00000-0  23948-4 0  9992
2 37841  19.9731 348.9972 0011924  79.8709  64.9498 14.10599772330319
M-CUBED/EXP-1 PRIME
1 37855U 11061F   18064.91309036 +.00001600 +00000-0 +89633-4 0  9997
2 37855 101.7258 074.5916 0177558 027.8277 333.2295 15.04116941345654
HORYU 2
1 38340U 12025D   18064.93130439 +.00000172 +00000-0 +33363-4 0  9991
2 38340 098.3735 083.0706 0011749 173.4749 186.6614 14.75507184301475
STRAND 1
1 39090U 13009E   18064.91622589 -.00000002 +00000-0 +14796-4 0  9999
2 39090 098.5315 272.5816 0008199 240.9512 119.0853 14.35013136262997
SOMP
1 39134U 13015E   18064.57396175  .00001166  00000-0  65037-4 0  9991
2 39134  64.8625 102.0042 0022419 224.6717 135.2605 15.18859448269168
BEESAT 3
1 39135U 13015F   18065.21913419  .00000682  00000-0  44791-4 0  9996
2 39135  64.8681 111.9559 0028117 246.9798 112.8362 15.16433066269039
BEESAT 2
1 39136U 13015G   18064.62524879 +.00000649 +00000-0 +43672-4 0  9999
2 39136 064.8692 116.3778 0028986 246.8008 113.0064 15.15913552268506
CUBEBUG 1
1 39153U 13018D   18064.89370095 +.00000190 +00000-0 +31835-4 0  9998
2 39153 097.9776 160.7634 0015613 281.5773 078.3686 14.80348440262222
ZACUBE
1 39417U 13066B   18064.66639849 +.00000193 +00000-0 +30649-4 0  9999
2 39417 097.5992 098.7714 0060340 133.3322 227.2943 14.80884089231479
TRITON 1
1 39427U 13066M   18064.94287892 +.00000110 +00000-0 +25793-4 0  9991
2 39427 097.6388 067.7331 0113028 229.6990 129.4296 14.67617767229241
GOMX 1
1 39430U 13066Q   18065.50417338  .00000173  00000-0  40868-4 0  9997
2 39430  97.6881  49.8343 0150338 294.9788  63.5861 14.59033603228171
HUMSAT D
1 39433U 13066T   18064.81330023 +.00000238 +00000-0 +28861-4 0  9999
2 39433 097.6177 124.7436 0032399 068.2512 292.2150 14.91764011231830
50 SAT
1 39436U 13066W   18064.87731396  .00086789  00000-0  98151-3 0  9999
2 39436  97.7123 192.8535 0005934 226.2583 133.8183 15.62145294237118
CUBEBUG 2
1 39440U 13066AA  18065.47907180  .00000162  00000-0  29605-4 0  9997
2 39440  97.6084  86.7843 0080958 168.0748 192.2405 14.75620183230775
FUNCUBE 1
1 39444U 13066AE  18064.64874344 +.00000224 +00000-0 +34029-4 0  9999
2 39444 097.6004 100.1481 0059574 129.2690 231.3830 14.81650332230329
UWE-3
1 39446U 13066AG  18064.59464489 +.00000166 +00000-0 +28706-4 0  9990
2 39446 097.6026 091.9633 0071065 152.5628 207.9365 14.78153042229221
SPROUT
1 39770U 14029E   18065.21995315  .00000849  00000-0  10163-3 0  9992
2 39770  97.8725 167.1710 0009159 177.4347 182.6915 14.86696503205069
UNISAT 6
1 40012U 14033C   18065.22048278  .00000151  00000-0  30143-4 0  9993
2 40012  97.8238 305.2168 0058658 169.6051 190.6386 14.73771523199531
DUCHIFAT 1
1 40021U 14033M   18065.32922018  .00000401  00000-0  47233-4 0  9993
2 40021  97.9174 343.8638 0013480 151.8935 208.3012 14.90213611201635
QB50P1
1 40025U 14033R   18065.44353745  .00000282  00000-0  36271-4 0  9992
2 40025  97.9084 341.0413 0012919 157.1438 203.0356 14.88647485201509
CHUBUSAT 1
1 40300U 14070C   18065.48796563  .00000569  00000-0  28379-4 0  9990
2 40300  97.3717 145.3527 0018611 262.6421 152.6073 15.21409995184664
NUDT-PHONESAT
1 40900U 15049B   18064.95890281 +.00001932 +00000-0 +90450-4 0  9990
2 40900 097.4434 074.4247 0014581 036.8248 323.3986 15.20857676136229
ZDPS 2A
1 40901U 15049C   18065.50722109  .00000790  00000-0  43403-4 0  9993
2 40901  97.4602  73.4659 0014841  40.2559 319.9770 15.16887337136095
ZDPS 2B
1 40902U 15049D   18065.20333046  .00000776  00000-0  42923-4 0  9999
2 40902  97.4494  71.3613 0014866  38.5792 321.6500 15.16691926136030
XW-2A
1 40903U 15049E   18065.53236366  .00001659  00000-0  43485-4 0  9998
2 40903  97.3968  99.3223 0015563  45.8973 314.3551 15.40071653138000
KAITUO 1A
1 40904U 15049F   18065.51427030  .00000287  00000-0  18923-4 0  9992
2 40904  97.4585  71.0253 0015958  38.4936 116.7184 15.14901904135951
OBJECT G
1 40905U 15049G   18065.50351101  .00000376  00000-0  24335-4 0  9990
2 40905  97.4581  69.2625 0016675  31.4636 328.7590 15.13874408135882
XW-2C
1 40906U 15049H   18065.48907670  .00000604  00000-0  35759-4 0  9992
2 40906  97.4601  70.8748 0015939  31.5388 328.6796 15.15041032135942
XW-2D
1 40907U 15049J   18065.51744079  .00000669  00000-0  39078-4 0  9998
2 40907  97.4574  70.6128 0015241  29.7151 330.4944 15.15181001135953
LILACSAT 2
1 40908U 15049K   18064.93936985 +.00000339 +00000-0 +22547-4 0  9990
2 40908 097.4681 069.5349 0016907 031.6439 328.5806 15.13421281135754
XW-2F
1 40910U 15049M   18065.47841570  .00000982  00000-0  54002-4 0  9993
2 40910  97.4580  71.7048 0015888  26.0949 334.1081 15.16299630135894
XW-2B
1 40911U 15049N   18065.20106516  .00000645  00000-0  37835-4 0  9990
2 40911  97.4610  70.8000 0015186  31.2785 328.9348 15.15128526135806
